Flight Track Log - Related Links

Times and Time Zones

All times are in EST time to prevent confusion due to time zone crossing. See the UPS1337 flight status page for this flight to view local times or setup timezone preferences in your user account.

Time Position Orientation Groundspeed Altitude Reporting Facility
EST Latitude Longitude Course Direction KTS MPH feet Rate Location/Type
09:45PM 27.9167 -82.6833 319° Northwest 156 180 800  Level Tampa TRACON
09:46PM 27.9333 -82.7000 319° Northwest 150 173 2,200 2,667 Climbing Tampa TRACON
09:47PM 28.0000 -82.6667 24° Northeast 290 334 4,800 2,813 Climbing Tampa TRACON
09:53PM 28.5599 -82.6011 North 425 489 21,700 2,845 Climbing FlightAware ADS-B
09:53PM 28.6301 -82.5990 North 436 502 23,100 2,113 Climbing FlightAware ADS-B
09:56PM 29.0076 -82.5902 North 458 527 29,200 1,635 Climbing FlightAware ADS-B
10:00PM 29.4665 -82.5791 North 430 495 34,000 1,114 Climbing FlightAware ADS-B
10:01PM 29.5476 -82.5774 North 426 490 34,100 519 Climbing FlightAware ADS-B
10:01PM 29.6236 -82.5756 North 423 487 34,700 771 Climbing FlightAware ADS-B
10:02PM 29.6828 -82.5741 North 425 489 35,000 261 Climbing FlightAware ADS-B
10:02PM 29.7587 -82.5721 North 424 488 35,000  Level FlightAware ADS-B
10:03PM 29.8312 -82.5705 North 424 488 35,000  Level FlightAware ADS-B
10:04PM 29.8988 -82.5688 North 425 489 35,000  Level FlightAware ADS-B
10:04PM 29.9530 -82.5672 North 424 488 35,000  Level FlightAware ADS-B
10:05PM 30.0201 -82.5658 North 424 488 35,000  Level FlightAware ADS-B
10:05PM 30.0738 -82.5645 North 424 488 35,000  Level FlightAware ADS-B
10:06PM 30.1549 -82.5624 North 423 487 35,000  Level FlightAware ADS-B
10:06PM 30.2142 -82.5606 North 424 488 35,000  Level FlightAware ADS-B
10:07PM 30.2674 -82.5591 North 424 488 35,000  Level FlightAware ADS-B
10:08PM 30.3528 -82.5571 North 422 486 35,000  Level FlightAware ADS-B
10:08PM 30.4116 -82.5558 North 421 484 35,000  Level FlightAware ADS-B
10:09PM 30.4915 -82.5483 North 437 503 35,000  Level FlightAware ADS-B
10:10PM 30.6053 -82.5106 21° North 461 531 35,000  Level FlightAware ADS-B
10:10PM 30.6906 -82.4735 20° North 459 528 35,000  Level FlightAware ADS-B
10:11PM 30.7699 -82.4394 21° North 460 529 35,000 -54 Level FlightAware ADS-B
10:12PM 30.9044 -82.3842 21° North 446 513 34,900 -45 Descending Jacksonville Center
10:13PM 31.0253 -82.3278 22° Northeast 446 513 34,900 50 Level Jacksonville Center
10:14PM 31.1419 -82.2808 19° North 451 519 35,000 50 Climbing Jacksonville Center
10:15PM 31.2503 -82.2317 21° North 451 519 35,000 -50 Level Jacksonville Center
10:16PM 31.3692 -82.1822 20° North 451 519 34,900  Descending Jacksonville Center
10:17PM 31.4856 -82.1300 21° North 451 519 35,000 50 Climbing Jacksonville Center
10:18PM 31.6044 -82.0753 21° North 451 519 35,000  Level Jacksonville Center
10:19PM 31.7231 -82.0231 21° North 451 519 35,000  Level Jacksonville Center
10:20PM 31.8500 -81.9706 19° North 451 519 35,000  Level Jacksonville Center
10:21PM 31.9644 -81.9156 22° Northeast 451 519 35,000  Level Jacksonville Center
10:22PM 32.0706 -81.8728 19° North 444 511 35,000  Level Jacksonville Center
10:23PM 32.1953 -81.8147 21° North 444 511 35,000  Level Jacksonville Center
10:24PM 32.3014 -81.7694 20° North 444 511 35,000  Level Jacksonville Center
10:25PM 32.4283 -81.7111 21° North 444 511 35,000  Level Jacksonville Center
10:26PM 32.5383 -81.6606 21° North 438 504 35,000  Level Jacksonville Center
10:27PM 32.6403 -81.6047 25° Northeast 438 504 35,000 -50 Level Jacksonville Center
10:28PM 32.7500 -81.5267 31° Northeast 451 519 34,900 -50 Descending Jacksonville Center
10:29PM 32.8639 -81.4483 30° Northeast 459 528 34,900 -762 Level Jacksonville Center
10:36PM 33.6327 -80.8995 31° Northeast 434 499 28,700 -825 Descending FlightAware ADS-B
10:37PM 33.7095 -80.8444 31° Northeast 433 498 28,400 -527 Descending FlightAware ADS-B
10:38PM 33.7889 -80.7875 31° Northeast 435 501 27,900 -553 Descending FlightAware ADS-B
10:38PM 33.8402 -80.7505 31° Northeast 438 504 27,700 -474 Descending FlightAware ADS-B
10:39PM 33.9192 -80.6933 31° Northeast 439 505 27,300 -545 Descending FlightAware ADS-B
10:40PM 33.9947 -80.6390 31° Northeast 438 504 26,900 -500 Descending FlightAware ADS-B
10:40PM 34.0471 -80.6011 31° Northeast 437 503 26,700 -484 Descending FlightAware ADS-B
10:41PM 34.1011 -80.5618 31° Northeast 438 504 26,400 -545 Descending FlightAware ADS-B
10:42PM 34.1811 -80.5036 31° Northeast 446 513 26,000 -539 Descending FlightAware ADS-B
10:42PM 34.2582 -80.4475 31° Northeast 441 507 25,600 -553 Descending FlightAware ADS-B
10:43PM 34.3135 -80.4072 31° Northeast 442 509 25,300 -592 Descending FlightAware ADS-B
10:44PM 34.3823 -80.3568 31° Northeast 445 512 24,900 -431 Descending FlightAware ADS-B
10:46PM 34.6352 -80.1707 31° Northeast 451 519 24,000 -286 Descending FlightAware ADS-B
10:47PM 34.7078 -80.1192 31° Northeast 420 483 24,000  Level Washington Center
10:48PM 34.8092 -80.0314 35° Northeast 452 520 24,000  Level Washington Center
10:49PM 34.9069 -79.9278 41° Northeast 471 542 24,000 -200 Level Washington Center
10:50PM 34.9981 -79.8261 42° Northeast 443 510 23,600 -2,066 Descending Washington Center
10:51PM 35.0894 -79.7269 42° Northeast 427 491 19,800 -3,600 Descending Washington Center
10:52PM 35.1653 -79.6419 42° Northeast 411 473 16,400 -3,687 Descending Washington Center
10:52PM 35.2108 -79.5933 41° Northeast 391 450 14,700 -3,254 Descending Washington Center
10:53PM 35.2642 -79.5553 30° Northeast 400 460 13,200 -2,712 Descending Washington Center
10:53PM 35.3219 -79.5122 31° Northeast 354 407 11,400 -2,066 Descending Washington Center
10:54PM 35.3389 -79.5006 29° Northeast 367 422 11,100 -393 Descending Washington Center
10:54PM 35.3967 -79.4600 30° Northeast 282 325 11,000 -103 Descending Washington Center
10:55PM 35.4200 -79.4458 26° Northeast 311 358 11,000 -295 Level Washington Center
10:55PM 35.4650 -79.4122 31° Northeast 271 312 10,700 -590 Descending Washington Center
10:56PM 35.4797 -79.4053 21° North 271 312 10,400 -968 Descending Washington Center
10:56PM 35.5211 -79.3561 44° Northeast 273 314 9,700 -1,525 Descending Washington Center
10:57PM 35.5342 -79.3339 54° Northeast 256 295 8,900 -2,557 Descending Washington Center
10:57PM 35.5631 -79.2792 57° Northeast 260 299 7,100 -2,226 Descending Washington Center
10:58PM 35.5717 -79.2667 50° Northeast 256 295 6,600 -1,966 Descending Washington Center
10:58PM 35.6028 -79.2094 56° Northeast 251 289 5,200 -1,900 Descending Washington Center
10:59PM 35.6181 -79.1869 50° Northeast 262 302 4,700 -1,200 Descending Washington Center
10:59PM 35.6403 -79.1394 60° Northeast 237 273 4,000 -700 Descending Washington Center
11:00PM 35.6511 -79.1272 43° Northeast 248 285 4,000 -194 Level Washington Center
11:00PM 35.6753 -79.0822 57° Northeast 196 226 3,800 -203 Descending Washington Center
11:01PM 35.6842 -79.0647 58° Northeast 216 249 3,800 -243 Level Washington Center
11:02PM 35.7086 -79.0147 59° Northeast 181 208 3,500 -305 Descending Washington Center
11:02PM 35.7108 -79.0122 42° Northeast 197 227 3,500  Level Washington Center
11:03PM 35.7392 -78.9672 52° Northeast 176 203 3,500 -109 Level Washington Center
11:04PM 35.7694 -78.9328 43° Northeast 162 186 3,300 -517 Descending Washington Center
11:05PM 35.7975 -78.8981 45° Northeast 138 159 2,500 -694 Descending Washington Center
11:06PM 35.8211 -78.8683 46° Northeast 100 115 1,900 -585 Descending Washington Center
11:07PM 35.8406 -78.8436 46° Northeast 104 120 1,300 -581 Descending Washington Center
11:08PM 35.8622 -78.8189 43° Northeast 114 131 700 -590 Descending Washington Center
11:10PM 35.8667 -78.7833 51° Northeast  Level FlightAware Approximate
11:17PM 35.8776 -78.7875 51° Northeast  Level Estimated
11:18PM 35.8776 -78.7875 51° Northeast  Level Estimated
11:19PM 35.8776 -78.7875 51° Northeast  Level Estimated

Login

Don't have an account? Register now (free) for customized features, flight alerts, and more!